{"data":{"norad_id":55637,"epoch":"2026-09-20T22:00:03.000096Z","epoch_age_seconds":67069,"freshness":"FRESH","line1":"1 55637U 23021K   26263.91670139  .00045305  00000+0  33142-2 0  9990","line2":"2 55637  70.0018  52.3091 0004375 308.9548   9.7877 15.03356555  5764","mean_motion":15.03356555,"eccentricity":0.0004375,"inclination_deg":70.0018,"raan_deg":52.3091,"arg_perigee_deg":308.9548,"mean_anomaly_deg":9.7877,"bstar":0.0033142,"rev_number":576,"period_min":95.785660109088,"perigee_km":553.52108335783,"apogee_km":559.58893886756,"semimajor_km":6934.6920111127,"source":"CELESTRAK","updated_at":"2026-09-21T09:00:33.281563Z"}}